FW9748 Weather Reports


time (UTC)temp
F
wind
direction
speed
knots
gust
knots
rain 1hr
in
rain 24hr
in
rain mn
in
humidity
%
barometer
mb
20260505094304 56 187 1.7 2.6 0.00 0.00 0.00 82 1006.4
20260505093305 57 187 1.7 4.3 0.00 0.00 0.00 84 1006.1
20260505092804 57 187 2.6 5.2 0.00 0.00 0.00 84 1006.1
20260505092305 58 187 2.6 2.6 0.00 0.00 0.00 86 1005.8
20260505091804 58 187 2.6 4.3 0.00 0.00 0.00 88 1006.1
20260505091304 59 187 2.6 4.3 0.00 0.00 0.00 90 1006.1
20260505090805 59 187 1.7 5.2 0.00 0.00 0.00 90 1006.1
20260505090305 59 187 2.6 2.6 0.00 0.00 0.00 90 1006.1
20260505085804 60 187 1.7 1.7 0.00 0.00 0.00 89 1005.8
20260505085305 60 187 1.7 1.7 0.00 0.00 0.00 89 1005.4
20260505084804 60 187 1.7 1.7 0.00 0.00 0.00 89 1005.1
20260505084304 60 187 1.7 1.7 0.00 0.00 0.00 89 1004.7
20260505083305 60 185 0.9 0.9 0.00 0.00 0.00 88 1004.4
20260505082804 61 180 0.0 0.0 0.00 0.00 0.00 86 1004.4
20260505082305 61 180 0.0 0.9 0.00 0.00 0.00 85 1004.4
20260505080805 62 180 0.0 1.7 0.00 0.00 0.00 80 1004.1
20260505080304 62 178 0.9 1.7 0.00 0.00 0.00 77 1004.1
20260505075804 62 178 0.0 0.9 0.00 0.00 0.00 77 1004.4
20260505075304 62 178 0.9 1.7 0.00 0.00 0.00 76 1004.4
20260505074804 62 178 0.0 1.7 0.00 0.00 0.00 76 1004.4
20260505073805 62 125 1.7 1.7 0.00 0.00 0.00 76 1004.1
20260505073304 63 120 0.9 1.7 0.00 0.00 0.00 75 1004.4
20260505072805 63 118 1.7 1.7 0.00 0.00 0.00 75 1004.4
20260505072305 63 114 1.7 2.6 0.00 0.00 0.00 73 1004.7
20260505071804 64 6 0.9 1.7 0.00 0.00 0.00 72 1005.1
20260505071304 64 37 0.0 1.7 0.00 0.00 0.00 71 1004.7
20260505070804 64 23 1.7 1.7 0.00 0.00 0.00 71 1005.1
20260505070304 64 74 1.7 2.6 0.00 0.00 0.00 71 1005.1
20260505065804 64 164 1.7 2.6 0.00 0.00 0.00 69 1005.1
20260505064804 65 108 1.7 2.6 0.00 0.00 0.00 67 1005.1
20260505064304 66 112 2.6 2.6 0.00 0.00 0.00 65 1005.1
20260505063805 66 57 1.7 6.1 0.00 0.00 0.00 63 1005.1
20260505063304 67 99 3.5 5.2 0.00 0.00 0.00 62 1004.7
20260505062804 68 124 2.6 4.3 0.00 0.00 0.00 60 1004.7
20260505062304 70 103 2.6 2.6 0.00 0.00 0.00 65 1004.4
20260505061805 71 298 1.7 4.3 0.00 0.00 0.00 62 1003.4
20260505061304 71 248 3.5 5.2 0.00 0.00 0.00 61 1003.4
20260505060304 71 207 3.5 5.2 0.00 0.00 0.00 61 1002.7
20260505055304 71 312 2.6 6.1 0.00 0.00 0.00 61 1002.7
20260505054804 71 311 5.2 8.7 0.00 0.00 0.00 60 1002.7
20260505053804 71 259 4.3 6.1 0.00 0.00 0.00 60 1002.7
20260505053304 72 298 4.3 7.8 0.00 0.00 0.00 60 1002.7
20260505052804 72 260 3.5 5.2 0.00 0.00 0.00 60 1002.4
20260505052305 72 289 3.5 6.1 0.00 0.00 0.00 60 1002.7
20260505051804 72 243 3.5 5.2 0.00 0.00 0.00 60 1002.7
20260505050935 72 214 6.1 8.7 0.00 0.00 0.00 59 1002.4
20260505050304 72 284 2.6 8.7 0.00 0.00 0.00 59 1002.0
20260505041304 73 128 3.5 7.0 0.00 0.00 0.00 58 1002.0
20260505040804 73 269 4.3 5.2 0.00 0.00 0.00 58 1002.0
20260505040304 73 225 4.3 5.2 0.00 0.00 0.00 59 1002.0
20260505035804 73 235 4.3 5.2 0.00 0.00 0.00 58 1002.4
20260505034804 73 296 2.6 6.1 0.00 0.00 0.00 58 1002.4
20260505034304 73 246 2.6 5.2 0.00 0.00 0.00 58 1002.4
20260505033804 73 235 3.5 4.3 0.00 0.00 0.00 58 1002.4
20260505033304 74 246 4.3 5.2 0.00 0.00 0.00 58 1002.4
20260505032803 74 246 4.3 6.1 0.00 0.00 0.00 58 1002.7
20260505032305 74 237 2.6 5.2 0.00 0.00 0.00 58 1002.4
20260505031804 74 239 4.3 5.2 0.00 0.00 0.00 57 1002.4
20260505031304 74 180 2.6 4.3 0.00 0.00 0.00 58 1002.4
20260505030804 74 265 1.7 4.3 0.00 0.00 0.00 58 1002.4
20260505030303 74 231 3.5 5.2 0.00 0.00 0.00 58 1002.4
20260505025804 74 245 2.6 2.6 0.00 0.00 0.00 58 1002.4
20260505025305 74 241 1.7 4.3 0.00 0.00 0.00 58 1002.4
20260505024304 74 251 2.6 2.6 0.00 0.00 0.00 58 1002.0
20260505023804 74 240 1.7 2.6 0.00 0.00 0.00 58 1002.0
20260505022804 74 215 1.7 4.3 0.00 0.00 0.00 58 1001.7
20260505022304 74 231 1.7 2.6 0.00 0.00 0.00 58 1001.7
20260505021804 74 250 1.7 4.3 0.00 0.00 0.00 58 1001.7
20260505021303 74 225 2.6 2.6 0.00 0.00 0.00 57 1001.7
20260505020804 74 235 1.7 2.6 0.00 0.00 0.00 57 1001.4
20260505020304 74 229 1.7 2.6 0.00 0.00 0.00 57 1001.4
20260505015804 74 236 2.6 2.6 0.00 0.00 0.00 57 1001.0
20260505015304 74 264 1.7 2.6 0.00 0.00 0.00 57 1001.0
20260505014804 75 256 2.6 2.6 0.00 0.00 0.00 56 1001.0
20260505014303 75 243 2.6 2.6 0.00 0.00 0.00 56 1001.0
20260505013303 76 213 2.6 4.3 0.00 0.00 0.00 55 1001.0
20260505012804 76 245 2.6 4.3 0.00 0.00 0.00 54 1000.7
20260505011803 76 230 2.6 2.6 0.00 0.00 0.00 54 1000.3
20260505010304 77 229 3.5 4.3 0.00 0.00 0.00 52 1000.7
20260505005304 77 288 2.6 4.3 0.00 0.00 0.00 51 1000.3
20260505003804 78 248 2.6 4.3 0.00 0.00 0.00 52 1000.3
20260505003306 78 287 3.5 5.2 0.00 0.00 0.00 51 1000.3
20260505002806 78 248 2.6 2.6 0.00 0.00 0.00 52 1000.3
20260505002305 78 233 2.6 2.6 0.00 0.00 0.00 53 1000.0
20260505001306 79 218 2.6 5.2 0.00 0.00 0.00 51 1000.0
20260505000806 79 233 2.6 2.6 0.00 0.00 0.00 51 1000.0
20260505000305 80 240 2.6 4.3 0.00 0.00 0.00 50 1000.0
20260504235805 80 279 2.6 4.3 0.00 0.00 0.00 50 1000.3
20260504235306 80 249 3.5 4.3 0.00 0.00 0.00 49 1000.3
20260504234806 80 275 2.6 4.3 0.00 0.00 0.00 49 1000.3
20260504233805 80 290 1.7 4.3 0.00 0.00 0.00 50 1000.7
20260504233306 80 285 2.6 5.2 0.00 0.00 0.00 49 1000.3
20260504232306 80 258 2.6 4.3 0.00 0.00 0.00 48 1000.7
20260504231806 81 246 3.5 5.2 0.00 0.00 0.00 47 1000.7
20260504231306 80 236 1.7 4.3 0.00 0.00 0.00 47 1000.7
20260504230806 81 229 3.5 5.2 0.00 0.00 0.00 47 1000.7
20260504230305 81 312 1.7 2.6 0.00 0.00 0.00 46 1000.7
20260504225805 81 264 2.6 4.3 0.00 0.00 0.00 46 1000.3
20260504224806 80 238 3.5 5.2 0.00 0.00 0.00 46 1000.3
20260504224306 80 45 2.6 4.3 0.00 0.00 0.00 46 1000.7
20260504223805 81 305 2.6 4.3 0.00 0.00 0.00 45 1000.7
20260504222806 81 224 4.3 7.8 0.00 0.00 0.00 46 1000.7
20260504222305 81 227 4.3 6.1 0.00 0.00 0.00 46 1000.7
20260504221805 81 264 6.1 7.8 0.00 0.00 0.00 45 1000.7
20260504221306 81 233 5.2 6.1 0.00 0.00 0.00 46 1000.7
20260504220305 81 224 2.6 8.7 0.00 0.00 0.00 49 1000.3
20260504215805 81 243 5.2 6.1 0.00 0.00 0.00 48 1000.7
20260504214806 81 228 2.6 6.1 0.00 0.00 0.00 49 1000.7
20260504214306 81 258 6.1 7.8 0.00 0.00 0.00 47 1000.7
20260504213805 81 244 6.1 7.0 0.00 0.00 0.00 47 1000.7
20260504213305 81 246 4.3 7.0 0.00 0.00 0.00 48 1000.7
20260504212805 81 316 2.6 5.2 0.00 0.00 0.00 49 1000.7
20260504212306 81 247 4.3 6.1 0.00 0.00 0.00 48 1000.7
20260504211805 81 293 5.2 7.0 0.00 0.00 0.00 48 1001.0
20260504211305 81 244 4.3 7.0 0.00 0.00 0.00 48 1001.0
20260504210806 81 245 3.5 5.2 0.00 0.00 0.00 48 1000.7
20260504210305 81 258 3.5 6.1 0.00 0.00 0.00 48 1000.7
20260504205305 80 292 4.3 7.0 0.00 0.00 0.00 49 1000.7
20260504204805 80 241 3.5 8.7 0.00 0.00 0.00 51 1000.7
20260504204306 80 227 4.3 7.8 0.00 0.00 0.00 51 1001.0
20260504203305 79 252 4.3 6.1 0.00 0.00 0.00 53 1001.4
20260504202805 79 269 3.5 7.0 0.00 0.00 0.00 53 1001.4
20260504202306 79 228 5.2 6.1 0.00 0.00 0.00 54 1001.4
20260504201305 78 249 3.5 7.8 0.00 0.00 0.00 54 1001.4
20260504200806 78 307 4.3 4.3 0.00 0.00 0.00 54 1001.7
20260504200305 78 113 1.7 5.2 0.00 0.00 0.00 56 1001.7
20260504195806 78 259 4.3 6.1 0.00 0.00 0.00 56 1001.7
20260504195305 77 289 4.3 5.2 0.00 0.00 0.00 57 1001.7
20260504194805 76 295 2.6 7.0 0.00 0.00 0.00 58 1002.4
20260504194306 75 237 5.2 7.0 0.00 0.00 0.00 57 1002.0
20260504193805 74 258 2.6 2.6 0.00 0.00 0.00 60 1001.7
20260504193305 74 237 2.6 4.3 0.00 0.00 0.00 62 1002.4
20260504192806 73 262 1.7 4.3 0.00 0.00 0.00 63 1002.4
20260504192305 73 313 1.7 4.3 0.00 0.00 0.00 63 1002.4
20260504191806 73 241 2.6 2.6 0.00 0.00 0.00 63 1002.4
20260504191305 73 254 1.7 2.6 0.00 0.00 0.00 64 1002.4
20260504190306 70 231 2.6 5.2 0.00 0.00 0.00 66 1002.4
20260504185805 69 241 2.6 4.3 0.00 0.00 0.00 67 1002.4
20260504185306 68 220 3.5 5.2 0.00 0.00 0.00 69 1002.0
20260504184805 67 168 3.5 5.2 0.00 0.00 0.00 69 1002.0
20260504184305 67 186 3.5 6.1 0.00 0.00 0.00 71 1002.0
20260504183805 67 195 2.6 5.2 0.00 0.00 0.00 70 1002.4
20260504183305 67 247 2.6 5.2 0.00 0.00 0.00 69 1003.0
20260504182305 68 181 4.3 5.2 0.00 0.00 0.00 64 1003.0
20260504181805 68 201 1.7 2.6 0.00 0.00 0.00 64 1003.7
20260504181305 68 178 1.7 4.3 0.00 0.00 0.00 64 1003.7
20260504180805 69 204 2.6 4.3 0.00 0.00 0.00 63 1003.7
20260504180305 69 250 2.6 4.3 0.00 0.00 0.00 63 1003.0
20260504175805 69 240 3.5 4.3 0.00 0.00 0.00 64 1003.4
20260504175305 69 233 2.6 5.2 0.00 0.00 0.00 64 1003.4
20260504174806 69 249 2.6 5.2 0.00 0.00 0.00 63 1003.4
20260504174305 69 244 1.7 1.7 0.00 0.00 0.00 63 1003.7
20260504173805 69 263 4.3 4.3 0.00 0.00 0.00 62 1003.4
20260504173305 69 172 2.6 5.2 0.00 0.00 0.00 62 1003.4
20260504172805 69 233 4.3 5.2 0.00 0.00 0.00 63 1003.7
20260504172305 69 232 1.7 2.6 0.00 0.00 0.00 63 1003.7
20260504171806 69 234 1.7 2.6 0.00 0.00 0.00 63 1004.1
20260504171305 68 206 2.6 2.6 0.00 0.00 0.00 65 1003.7
20260504170805 67 212 1.7 2.6 0.00 0.00 0.00 66 1004.1
20260504170305 67 252 2.6 4.3 0.00 0.00 0.00 67 1004.1
20260504160305 65 276 3.5 6.1 0.00 0.00 0.00 68 1004.7
20260504150805 65 225 4.3 6.1 0.00 0.00 0.00 66 1005.1
20260504141305 66 254 2.6 5.2 0.00 0.00 0.00 63 1005.8
20260504140805 66 226 2.6 4.3 0.00 0.00 0.00 63 1005.8
20260504140304 66 247 1.7 4.3 0.00 0.00 0.00 62 1005.8
20260504130305 65 226 2.6 4.3 0.00 0.00 0.00 65 1006.1
20260504120305 61 238 1.7 1.7 0.00 0.00 0.00 71 1007.1
20260504100304 62 238 1.7 1.7 0.00 0.00 0.00 67 1006.8